Voltar ao catálogo

STARLINK-33795

AtivoComunicaçõesVLEO
NORAD 63457·PAYLOAD·🇺🇸 United States

Lançado Apr 4, 2025 de Vandenberg Space Force Base

Loading…

Próximas Passagens (próximas 24 horas)

TLE

AtualizadoSource: CelesTrak SupGP

Época: Sep 14, 2026, 21:08 UTC

1 63457C 25069AA  26257.88104167 -.00013946  00000+0 -41212-3 0  2578
2 63457  53.1590 336.1814 0001293  81.2849  20.6277 15.34391996    18

Acompanhe STARLINK-33795 em tempo real com AllMySat

Download on the App Store